Stündliche Wetter Wien

Heute, 21 April, Mittwoch

Zeit Temperatur Niederschläge Wind Luftdruck Luftfeuchtigkeit
00:00 +5°C° 0 mm 3 m/S 742 mmHg 82%
01:00 +6°C° 0 mm 2 m/S 742 mmHg 82%
02:00 +6°C° 0 mm 2 m/S 742 mmHg 83%
03:00 +5°C° 0 mm 2 m/S 742 mmHg 84%
04:00 +5°C° 0 mm 2 m/S 742 mmHg 84%
05:00 +6°C° 0 mm 2 m/S 742 mmHg 80%
06:00 +7°C° 0 mm 2 m/S 742 mmHg 75%
07:00 +8°C° 0 mm 2 m/S 742 mmHg 70%
08:00 +10°C° 0 mm 2 m/S 742 mmHg 65%
09:00 +13°C° 0 mm 2 m/S 742 mmHg 59%
10:00 +15°C° 0 mm 2 m/S 742 mmHg 53%
11:00 +16°C° 0 mm 2 m/S 742 mmHg 49%
12:00 +17°C° 0 mm 2 m/S 742 mmHg 46%
13:00 +18°C° 0 mm 3 m/S 741 mmHg 42%
14:00 +18°C° 0 mm 2 m/S 741 mmHg 42%
15:00 +18°C° 0 mm 2 m/S 741 mmHg 42%
16:00 +18°C° 0 mm 2 m/S 740 mmHg 41%
17:00 +16°C° 0.1 mm 2 m/S 740 mmHg 48%
18:00 +15°C° 0.1 mm 2 m/S 740 mmHg 55%
19:00 +13°C° 0.1 mm 1 m/S 740 mmHg 63%
20:00 +12°C° 0.2 mm 1 m/S 741 mmHg 66%
21:00 +11°C° 0.2 mm 1 m/S 741 mmHg 70%
22:00 +10°C° 0.2 mm 1 m/S 741 mmHg 74%
23:00 +10°C° 0 mm 1 m/S 741 mmHg 76%

Morgen, 22 April, Donnerstag

Zeit Temperatur Niederschläge Wind Luftdruck Luftfeuchtigkeit
00:00 +9°C° 0 mm 1 m/S 741 mmHg 79%
01:00 +9°C° 0 mm 1 m/S 742 mmHg 81%
02:00 +9°C° 0 mm 1 m/S 742 mmHg 82%
03:00 +7°C° 0 mm 2 m/S 742 mmHg 83%
04:00 +7°C° 0 mm 2 m/S 742 mmHg 85%
05:00 +8°C° 0 mm 2 m/S 742 mmHg 82%
06:00 +9°C° 0 mm 2 m/S 743 mmHg 79%
07:00 +9°C° 0 mm 3 m/S 743 mmHg 76%
08:00 +10°C° 0 mm 3 m/S 743 mmHg 72%
09:00 +11°C° 0 mm 4 m/S 744 mmHg 68%
10:00 +12°C° 0 mm 4 m/S 744 mmHg 64%
11:00 +11°C° 0.3 mm 4 m/S 744 mmHg 69%
12:00 +8°C° 0.3 mm 4 m/S 744 mmHg 75%
13:00 +6°C° 0.3 mm 5 m/S 745 mmHg 81%
14:00 +6°C° 0.4 mm 4 m/S 745 mmHg 79%
15:00 +7°C° 0.4 mm 4 m/S 745 mmHg 78%
16:00 +8°C° 0.4 mm 3 m/S 745 mmHg 77%
17:00 +7°C° 0 mm 3 m/S 745 mmHg 77%
18:00 +7°C° 0 mm 2 m/S 745 mmHg 77%
19:00 +8°C° 0 mm 1 m/S 745 mmHg 77%
20:00 +7°C° 0 mm 1 m/S 746 mmHg 76%
21:00 +6°C° 0 mm 2 m/S 746 mmHg 75%
22:00 +5°C° 0 mm 2 m/S 747 mmHg 75%
23:00 +5°C° 0 mm 2 m/S 747 mmHg 75%

übermorgen, 23 April, Freitag

Zeit Temperatur Niederschläge Wind Luftdruck Luftfeuchtigkeit
00:00 +5°C° 0 mm 2 m/S 747 mmHg 74%
01:00 +5°C° 0 mm 2 m/S 747 mmHg 74%
02:00 +4°C° 0 mm 2 m/S 747 mmHg 74%
03:00 +3°C° 0 mm 3 m/S 747 mmHg 75%
04:00 +3°C° 0 mm 3 m/S 748 mmHg 75%
05:00 +4°C° 0 mm 4 m/S 748 mmHg 73%
06:00 +4°C° 0 mm 4 m/S 748 mmHg 71%
07:00 +5°C° 0 mm 4 m/S 748 mmHg 69%
08:00 +6°C° 0 mm 5 m/S 748 mmHg 62%
09:00 +8°C° 0 mm 5 m/S 748 mmHg 54%
10:00 +9°C° 0 mm 6 m/S 748 mmHg 47%
11:00 +10°C° 0 mm 6 m/S 748 mmHg 44%
12:00 +11°C° 0 mm 6 m/S 748 mmHg 41%
13:00 +13°C° 0 mm 6 m/S 748 mmHg 38%
14:00 +13°C° 0 mm 6 m/S 748 mmHg 40%
15:00 +13°C° 0 mm 6 m/S 748 mmHg 41%
16:00 +13°C° 0 mm 6 m/S 748 mmHg 43%
17:00 +10°C° 0 mm 5 m/S 748 mmHg 47%
18:00 +10°C° 0 mm 4 m/S 749 mmHg 51%
19:00 +7°C° 0 mm 4 m/S 749 mmHg 55%
20:00 +7°C° 0 mm 3 m/S 750 mmHg 59%
21:00 +7°C° 0 mm 2 m/S 750 mmHg 62%
22:00 +6°C° 0 mm 2 m/S 750 mmHg 65%
23:00 +5°C° 0 mm 2 m/S 750 mmHg 67%

24 April, Samstag

Zeit Temperatur Niederschläge Wind Luftdruck Luftfeuchtigkeit
00:00 +5°C° 0 mm 2 m/S 750 mmHg 69%
01:00 +5°C° 0 mm 2 m/S 750 mmHg 70%
02:00 +4°C° 0 mm 2 m/S 750 mmHg 74%
03:00 +3°C° 0 mm 2 m/S 750 mmHg 77%
04:00 +4°C° 0 mm 1 m/S 750 mmHg 80%
05:00 +4°C° 0 mm 2 m/S 750 mmHg 76%
06:00 +5°C° 0 mm 2 m/S 750 mmHg 72%
07:00 +6°C° 0 mm 2 m/S 750 mmHg 68%
08:00 +8°C° 0 mm 2 m/S 750 mmHg 63%
09:00 +9°C° 0 mm 2 m/S 750 mmHg 57%
10:00 +12°C° 0 mm 2 m/S 750 mmHg 51%
11:00 +13°C° 0 mm 2 m/S 749 mmHg 48%
12:00 +13°C° 0 mm 3 m/S 748 mmHg 44%
13:00 +14°C° 0 mm 3 m/S 748 mmHg 41%
14:00 +14°C° 0 mm 3 m/S 747 mmHg 40%
15:00 +14°C° 0 mm 3 m/S 747 mmHg 40%
16:00 +16°C° 0 mm 3 m/S 747 mmHg 40%
17:00 +13°C° 0 mm 3 m/S 747 mmHg 46%
18:00 +13°C° 0 mm 2 m/S 747 mmHg 52%
19:00 +12°C° 0 mm 2 m/S 747 mmHg 58%
20:00 +10°C° 0 mm 2 m/S 748 mmHg 60%
21:00 +8°C° 0 mm 3 m/S 748 mmHg 61%
22:00 +7°C° 0 mm 3 m/S 749 mmHg 63%
23:00 +7°C° 0 mm 2 m/S 749 mmHg 63%

25 April, Sonntag

Zeit Temperatur Niederschläge Wind Luftdruck Luftfeuchtigkeit
00:00 +7°C° 0 mm 2 m/S 749 mmHg 64%
01:00 +6°C° 0 mm 2 m/S 749 mmHg 64%
02:00 +6°C° 0 mm 2 m/S 749 mmHg 67%
03:00 +5°C° 0 mm 2 m/S 749 mmHg 70%
04:00 +4°C° 0 mm 2 m/S 749 mmHg 73%
05:00 +5°C° 0 mm 2 m/S 749 mmHg 72%
06:00 +5°C° 0 mm 2 m/S 749 mmHg 71%
07:00 +5°C° 0 mm 3 m/S 750 mmHg 69%
08:00 +7°C° 0 mm 3 m/S 749 mmHg 62%
09:00 +8°C° 0 mm 3 m/S 749 mmHg 55%
10:00 +9°C° 0 mm 3 m/S 749 mmHg 48%
11:00 +10°C° 0 mm 3 m/S 749 mmHg 44%
12:00 +11°C° 0 mm 3 m/S 749 mmHg 40%
13:00 +12°C° 0 mm 4 m/S 748 mmHg 36%
14:00 +12°C° 0 mm 4 m/S 748 mmHg 35%
15:00 +12°C° 0 mm 4 m/S 748 mmHg 35%
16:00 +12°C° 0 mm 4 m/S 747 mmHg 34%
17:00 +11°C° 0 mm 4 m/S 747 mmHg 39%
18:00 +9°C° 0 mm 3 m/S 747 mmHg 45%
19:00 +7°C° 0 mm 2 m/S 748 mmHg 50%
20:00 +7°C° 0 mm 2 m/S 748 mmHg 51%
21:00 +7°C° 0 mm 1 m/S 748 mmHg 52%
22:00 +6°C° 0 mm 1 m/S 748 mmHg 52%
23:00 +6°C° 0 mm 1 m/S 748 mmHg 54%

26 April, Montag

Zeit Temperatur Niederschläge Wind Luftdruck Luftfeuchtigkeit
00:00 +5°C° 0 mm 1 m/S 748 mmHg 55%
01:00 +5°C° 0 mm 1 m/S 748 mmHg 56%
02:00 +4°C° 0 mm 1 m/S 748 mmHg 57%
03:00 +4°C° 0 mm 1 m/S 748 mmHg 59%
04:00 +3°C° 0 mm 1 m/S 748 mmHg 60%
05:00 +4°C° 0 mm 1 m/S 748 mmHg 57%
06:00 +5°C° 0 mm 1 m/S 748 mmHg 54%
07:00 +7°C° 0 mm 1 m/S 748 mmHg 50%
08:00 +8°C° 0 mm 1 m/S 748 mmHg 46%
09:00 +10°C° 0 mm 1 m/S 748 mmHg 41%
10:00 +12°C° 0 mm 2 m/S 748 mmHg 37%
11:00 +12°C° 0 mm 2 m/S 747 mmHg 35%
12:00 +13°C° 0 mm 2 m/S 747 mmHg 34%
13:00 +14°C° 0 mm 2 m/S 746 mmHg 32%
14:00 +14°C° 0 mm 2 m/S 746 mmHg 33%
15:00 +13°C° 0 mm 3 m/S 745 mmHg 35%
16:00 +13°C° 0 mm 3 m/S 745 mmHg 37%
17:00 +12°C° 0 mm 4 m/S 744 mmHg 43%
18:00 +10°C° 0 mm 4 m/S 744 mmHg 49%
19:00 +8°C° 0 mm 4 m/S 743 mmHg 56%
20:00 +8°C° 0 mm 4 m/S 743 mmHg 58%
21:00 +7°C° 0 mm 5 m/S 742 mmHg 61%
22:00 +7°C° 0 mm 5 m/S 742 mmHg 63%
23:00 +7°C° 0 mm 6 m/S 741 mmHg 64%
Mehr zeigen

Wir brauchen deine Erlaubnis

Meteoprog und unser Service Anbieter werden persönliche Daten aufbewahren, so wie Cookies, Geräte Bezeichnung oder ähnliche Technologien von deinem Gerät und Prozess, so wie Persönliche Daten Inhalte und Werbungen, genauso wie social Media und den Verkehr zu analysieren.

  • Aufbewahrung und/oder Zugang zu deiner Geräte Informationen.

    Cookies, Geräte Bezeichnung oder andere Informationen, können aufbewahrt oder Zugang zu deinem Gerät erhalten, für den Grund, der oben angegeben wird.

  • Personalisierte Werbung und Inhalte, Messungen, Einblick in das Publikum und Produkt Entwicklung.

    Werbungen und Inhalte können personalisiert werden, basierend auf ein Profil. Mehr Daten können besser personalisierte Werbungen und Inhalte hinzufügen. Werbung und Inhalte können gezeigt und gemessen werden. Einblicke über das Publikum, welche die Werbung gesehen haben und den Inhalt, können abgeleitet werden. So wie Daten können genutzt werden, um es zu verbessern oder die Benutzer Erfahrung zu verbessern das System und die Software.

Wenn du “Ich stimme zu” klickst, erlaubst du uns, die Cookies zu benutzen die Geräte Bezeichnung, den Web oder ähnliche Technologien zu benutzen. Deine Settings, können in deinem Gerät bei deinem Browser geändert werden.

Für den bestimmten Zweck, berechtigten Interessen beruhen darauf, mehr als auf den Inhalt. Du kannst mehr darüber in unseren Privaten und Cookie Politik lesen.